Location: Jackson
(42.2460°N, 84.4010°W)
Time: 18:42:57
(UTC-04:00)

Courier 1B Rocket - Pass Details

Date: 11 February 2026
Orbit: 920 x 1201 km, 28.2° (Epoch: 12 March)

Event Time Altitude Azimuth Distance (km) Brightness Sun altitude
Rises 23:19:54 0° 238° (WSW) 3,711 - -55.2°
Reaches altitude 10° 23:23:00 10° 225° (SW) 2,808 - -55.6°
Maximum altitude 23:28:23 25° 173° (S) 2,013 - -56.2°
Drops below altitude 10° 23:34:03 10° 122° (ESE) 2,976 - -56.9°
Sets 23:37:27 0° 109° (ESE) 3,981 - -57.2°
